| Date | Temp | Humidity | Rainfall | Dew Point | Wind Direction | Wind Speed | Wind Pressure | Condition | Visibility |
|---|---|---|---|---|---|---|---|---|---|
| 2025-03-22 21:59:44 | 27 | 87 | 0.00 | 25 | 040 | 9.5 | 1013 | Showers | 10 KM |
| 2025-03-22 20:58:42 | 27 | 87 | 0 | 24 | 070 | 5.7 | 1013 | Showers | 10 KM |
| 2025-03-22 19:59:11 | 27 | 87 | 0 | 24 | 050 | 15.2 | 1012 | Showers | 10 KM |
| 2025-03-22 18:59:05 | 28 | 80 | 0 | 24 | 050 | 17.1 | 1011 | Cloudy | 10 KM |
| 2025-03-22 17:59:05 | 28 | 81 | 0 | 24 | 050 | 19.0 | 1010 | Cloudy | 20 KM |
| 2025-03-22 16:57:47 | 28 | 81 | 0.0 | 24 | 030 | 17.1 | 1010 | Cloudy | 20KM |
| 2025-03-22 16:00:45 | 28 | 80 | 0.0 | 25 | 030 | 15.2 | 1010 | Cloudy | 20KM |
| 2025-03-22 15:00:07 | 29 | 67 | 0.0 | 22 | 010 | 13.3 | 1010 | Cloudy | 20KM |
| 2025-03-22 13:59:22 | 28 | 75 | 0.0 | 24 | 010 | 15.2 | 1011 | Cloudy | 20km |
| 2025-03-22 13:01:41 | 28 | 77 | 0.00 | 24 | 350 | 13.3 | 1012 | Partly Cloudy (Day) | 10 km |
| 2025-03-22 11:58:49 | 29 | 72 | 0.0 | 23 | 070 | 1.9 | 1013 | Partly Cloudy (Day) | 10 km |
| 2025-03-22 10:58:45 | 83 | 83 | 0.00 | 24 | 200 | 5.7 | 1014 | Partly Cloudy (Day) | 10 km |
| 2025-03-22 10:00:56 | 27 | 86 | 0.00 | 24 | 170 | 7.6 | 1014 | Cloudy | 20 KM |
| 2025-03-22 09:03:21 | 26 | 87 | 0.00 | 24 | 180 | 5.7 | 1014 | Cloudy | 20 KM |
| 2025-03-22 07:58:21 | 25 | 89 | 0.00 | 23 | 180 | 1.9 | 1013 | Partly Cloudy (Day) | 10KM |
| 2025-03-22 06:58:46 | 24 | 92 | 0.00 | 23 | 130 | 3.8 | 1013 | Partly Cloudy (Day) | 10km |
| 2025-03-22 05:58:15 | 24 | 95 | 0.00 | 23 | 120 | 1.9 | 1012 | Mist | 10KM |
| 2025-03-22 04:58:08 | 24 | 95 | 0.00 | 23 | 140 | 3.8 | 1011 | Partly Cloudy (Night) | 10km |
| 2025-03-22 03:58:34 | 24 | 93 | 0.00 | 23 | 110 | 1.9 | 1011 | Partly Cloudy (Night) | 10km |
| 2025-03-22 02:58:51 | 24 | 93 | 0.00 | 23 | 140 | 1.9 | 1011 | Partly Cloudy (Night) | 10km |
| 2025-03-22 02:01:47 | 24 | 94 | 23 | 160 | 3.8 | 1012 | Partly Cloudy (Night) | 10 KM | |
| 2025-03-22 00:59:17 | 25 | 90 | 23 | 140 | 3.8 | 1013 | Partly Cloudy (Night) | 10 KM | |
| 2025-03-21 23:59:44 | 25 | 92 | 24 | 120 | 5.7 | 1014 | Night Shower | 10 KM | |
| 2025-03-21 23:01:27 | 26 | 93 | 24 | 090 | 7.6 | 1015 | Night Shower | 09 KM | |
| 2025-03-21 22:00:03 | 26 | 87 | 24 | 120 | 7.6 | 1015 | Partly Cloudy (Night) | 10 KM |